Regional Weather Roundup
Issued by NWS

Home | Current Version | Previous Version | Text Only | Print | Product List | Glossary Off
Versions: 1 2 3 4 5 6 7 8 9 10 11 12 13 14 15 16 17 18 19 20 21 22 23 24 25 26 27 28 29 30 31 32 33 34 35 36 37 38 39 40 41 42 43 44 45 46 47 48 49 50

000
ASUS43 KFSD 182102
RWRSD

WEATHER ROUNDUP FOR SOUTH DAKOTA
NATIONAL WEATHER SERVICE SIOUX FALLS SD
400 PM CDT MON SEP 18 2017

NOTE: "FAIR" INDICATES FEW OR NO CLOUDS BELOW 12,000 FEET WITH NO
SIGNIFICANT WEATHER AND/OR OBSTRUCTIONS TO VISIBILITY.


SDZ001>005-009-010-012>017-182200-
NORTHWEST AND NORTH CENTRAL SOUTH DAKOTA

CITY           SKY/WX    TMP DP  RH WIND       PRES   REMARKS
BUFFALO          N/A     78  34  20 S18       29.71F
MOBRIDGE       SUNNY     76  45  33 E5        29.79F
$$

SDZ012>016-024>037-041>051-057-063-072>074-182200-
SOUTHWEST AND SOUTH CENTRAL SOUTH DAKOTA

CITY           SKY/WX    TMP DP  RH WIND       PRES   REMARKS
RAPID CTY ARPT NOT AVBL
PIERRE         SUNNY     79  41  25 E8        29.78F
CUSTER         CLOUDY    72  28  19 SW9G21    29.92F
ELLSWORTH AFB  SUNNY     78  45  30 E15G21    29.79F
PHILIP         SUNNY     81  42  25 MISG      29.78F
PINE RIDGE     SUNNY     83  32  16 SW10      29.83
SPEARFISH      FAIR      75  41  29 VRB6      29.82F
WINNER         FAIR      80  60  50 S6        29.81F
$$

SDZ004>011-016>023-039-040-182200-
NORTHEAST SOUTH DAKOTA

CITY           SKY/WX    TMP DP  RH WIND       PRES   REMARKS
ABERDEEN       SUNNY     78  55  44 S8        29.79F
WATERTOWN      MOSUNNY   70  61  73 S13G20    29.84F
BROOKINGS      PTSUNNY   65  60  84 SE10      29.87F
SISSETON         N/A     71  61  70 S16       29.81F
$$

SDZ017-020-022-023-036>040-048>070-182200-
SOUTHEAST SOUTH DAKOTA

CITY           SKY/WX    TMP DP  RH WIND       PRES   REMARKS
SIOUX FALLS    PTSUNNY   74  63  68 S13       29.86F
HURON          SUNNY     79  57  46 SE10      29.80F
CHAMBERLAIN    SUNNY     81  59  47 S8G16     29.80F
MITCHELL       SUNNY     81  57  43 S9        29.81F
YANKTON        PTSUNNY   73  63  70 S13       29.85F
$$

ABBREVIATIONS USED IN REMARKS
   TC - TEMPERATURE IN CELSIUS
  WCI - WIND CHILL INDEX
   HX - HEAT INDEX
  VSB - VISIBILITY





USA.gov is the U.S. government's official web portal to all federal, state and local government web resources and services.